Weather past 2 weeks in Port-aux-Francais, Kerguelen Islands

Now
39 °F

Chilly.


Feels Like: 29 °F
Forecast: 31 / 37 °F
Wind: 20 mph from Northwest

Location: Port-Aux-Francais Iles Kerguelen

Current Time: Oct 1, 2014 at 11:30:20 AM

Latest Report: Oct 1, 2014 at 10:00 AM


Visibility: N/A

Pressure: 29.35 "Hg

Humidity: 75%

Dew point: 31 °F

Location of Port-aux-FrancaisLocation

Historic Weather in Port-aux-Francais — Graph

°F

Port-aux-Francais temperature yesterday

Maximum temperature yesterday: 33 °F (at 11:00 AM)
Minimum temperature yesterday: 24 °F (at 4:00 AM)
Average temperature yesterday: 28 °F

Past Weeks' High & Low Weather Summary

 TemperatureHumidityPressure
High53 °F (Sep 26, 2:00 PM)100% (Sep 20, 5:00 AM)30.02 "Hg (Sep 20, 5:00 AM)
Low24 °F (Sep 30, 4:00 AM)52% (Sep 17, 4:00 PM)28.50 "Hg (Sep 21, 1:00 AM)
Average34 °F80%29.42 "Hg
* Reported Sep 16 10:00 AM — Oct 1 10:00 AM, Port-aux-Francais, Weather by CustomWeather, © 2014

Note: Actual official high and low records may vary slightly from our data, if they occured in-between our weather recording intervals... More about our weather records

Advertising

Port-aux-Francais weather history for previous 24 hours

 ConditionsComfort  
Time TempWeatherWind HumidityBarometerVisibility
10:00 AM
Oct 1
39 °FChilly.20 mph75%29.35 "HgN/A
9:00 AM37 °FChilly.18 mph77%29.35 "HgN/A
8:00 AM35 °FLow clouds.18 mph85%29.35 "Hg9 mi
7:00 AM34 °FChilly.17 mph87%29.38 "HgN/A
6:00 AM33 °FChilly.13 mph80%29.38 "HgN/A
5:00 AM33 °FChilly.17 mph80%29.38 "HgN/A
4:00 AM33 °FChilly.16 mph81%29.38 "HgN/A
3:00 AM32 °FChilly.21 mph87%29.38 "HgN/A
2:00 AM30 °FChilly.24 mph85%29.41 "HgN/A
1:00 AM30 °FChilly.26 mph80%29.41 "HgN/A
12:00 AM29 °FChilly.20 mph71%29.44 "HgN/A
11:00 PM
Sep 30
28 °FChilly.14 mph67%29.47 "HgN/A
10:00 PM26 °FChilly.15 mph69%29.47 "HgN/A
9:00 PM26 °FChilly.12 mph69%29.50 "HgN/A
8:00 PM26 °FChilly.12 mph71%29.50 "HgN/A
7:00 PM28 °FChilly.17 mph63%29.50 "HgN/A
6:00 PM28 °FChilly.22 mph63%29.47 "HgN/A
5:00 PM29 °FChilly.24 mph62%29.47 "HgN/A
4:00 PM29 °FChilly.23 mph76%29.44 "HgN/A
3:00 PM29 °FChilly.31 mph83%29.41 "HgN/A
2:00 PM28 °FOvercast.31 mph94%29.38 "Hg2 mi
1:00 PM29 °FChilly.25 mph95%29.32 "HgN/A
12:00 PM31 °FChilly.13 mph87%29.26 "HgN/A
11:00 AM33 °FPassing clouds.8 mph74%29.23 "Hg6 mi
Weather by CustomWeather, © 2014

See weather overviewHow to use our weather pages